カタログに戻る

H-2A R/B

運用中HEO
NORAD 42966·ROCKET BODY·🇯🇵 Japan

打ち上げ Oct 9, 2017 から Tanegashima Space Center

Loading…

次のパス (今後24時間)

TLE

最新Source: Space-Track

元期: Sep 14, 2026, 03:38 UTC

1 42966U 17062B   26257.15180112  .00003930  00000-0  11301-2 0  9997
2 42966  31.4602 268.5528 7142213 219.0357  57.5383  2.45409051 77025

AllMySatでH-2A R/Bをリアルタイム追跡

Download on the App Store